User: anonymous   Login
Location: Caltech
(34.1382°N, 118.1253°W)
Time: 17:37:21
(UTC-08:00)
Language:

Cosmos 1626 - Orbit

View from above orbital plane
View from above orbital plane
View from above satellite
View from above satellite

Ground track
Ground track

The orbit data is extracted from the following two-line orbital elements,

1 15494U 85009A   14329.89873541  .00008226  00000-0  41835-3 0  7191
2 15494 082.4821 101.4998 0003830 080.4349 071.6382 15.16704695626818
Epoch (UTC): 25 November 2014 21:34:10
Eccentricity: 0.0003830
inclination: 82.4821°
perigee height: 513 km
apogee height: 518 km
right ascension of ascending node: 101.4998°
argument of perigee: 80.4349°
revolutions per day: 15.16704695
mean anomaly at epoch: 71.6382°
orbit number at epoch: 62681

The dashed part of the orbit path shows where the satellite is in the earth's shadow,  

DLR